CW1341 South Howell NJ US current weather conditions

sailwx.info

Wind from 345

Air temperature 3.3° C
Dewpoint -2.8° C

Last reported at 2020-Jan-28 23:00 UTC.
Time now 2020-Jan-28 23:52 UTC

Location: N 40°07' W 074°09'.
View on Google Maps.

See reports from other nearby stations

  
Tides and Currents Weather Stations Pressure Air Temp Water Temp Dewpoint Dewpoint Depression Visibility Wind Speed Wind Dir Waves Ship Positions
date/time (UTC)wind fromknots sea level pressurealtimeterstation pressurevisibilityair tempwater tempwave heightnotes
2020-Jan-28 23:00 345 3.3
2020-Jan-28 22:45 355 3.3
2020-Jan-28 22:30 303 0 gusting 3 3.3
2020-Jan-28 22:15 355 3.3
2020-Jan-28 22:00 347 3.3
2020-Jan-28 21:45 345 3.3
2020-Jan-28 21:33 355 3.3
2020-Jan-28 21:17 350 3.3
2020-Jan-28 21:02 336 0 gusting 3 3.9
2020-Jan-28 20:47 346 3.9
2020-Jan-28 20:34 005 0 gusting 5 3.9
2020-Jan-28 20:20 355 1 gusting 5 4.4
2020-Jan-28 20:01 350 5.0
2020-Jan-28 19:48 348 1 gusting 5 5.6
2020-Jan-28 19:32 038 0 gusting 6 5.6
2020-Jan-28 19:17 346 1 gusting 5 5.6
2020-Jan-28 19:01 339 5.6
2020-Jan-28 18:47 017 0 gusting 6 6.1
2020-Jan-28 18:33 017 2 gusting 9 6.1
2020-Jan-28 18:16 346 0 gusting 5 7.8
2020-Jan-28 18:02 017 6.7
2020-Jan-28 17:46 341 7.2
2020-Jan-28 17:32 331 0 gusting 6 7.2
2020-Jan-28 17:17 013 0 gusting 7 6.7
2020-Jan-28 17:01 341 0 gusting 5 6.1
2020-Jan-28 16:46 345 0 gusting 4 6.7
2020-Jan-28 16:32 324 0 gusting 5 6.7
2020-Jan-28 16:16 009 6.7
2020-Jan-28 16:01 355 0 gusting 7 6.1
2020-Jan-28 15:46 005 1 gusting 8 6.1
2020-Jan-28 15:31 345 5.6
2020-Jan-28 15:15 339 1 gusting 6 5.0
2020-Jan-28 15:02 306 3 gusting 7 4.4
2020-Jan-28 14:45 005 0 gusting 5 4.4
2020-Jan-28 14:31 360 0 gusting 5 3.3
2020-Jan-28 14:16 314 1 gusting 7 3.3
2020-Jan-28 14:00 350 0 gusting 6 3.3
2020-Jan-28 13:45 355 0 gusting 2 2.8
2020-Jan-28 13:30 360 1.7
2020-Jan-28 13:15 290 1.1
2020-Jan-28 13:03 274 0.6
2020-Jan-28 12:48 274 0.6
2020-Jan-28 12:33 273 1.1
2020-Jan-28 12:18 273 1.1
2020-Jan-28 12:02 342 1.7
2020-Jan-28 11:46 005 1.7
2020-Jan-28 11:31 005 1.1
2020-Jan-28 11:16 351 1.1
2020-Jan-28 11:01 346 0.6
2020-Jan-28 10:46 342 -0.0
2020-Jan-28 10:31 342 0.6
2020-Jan-28 10:18 342 0.6
2020-Jan-28 10:01 342 1.1
2020-Jan-28 09:46 342 1.1
2020-Jan-28 09:31 342 1.7
2020-Jan-28 09:15 341 1.7
2020-Jan-28 09:01 341 2.2
2020-Jan-28 08:46 355 2.2
2020-Jan-28 08:30 355 2.8
2020-Jan-28 08:15 342 2.8
2020-Jan-28 08:00 338 2.8
2020-Jan-28 07:45 348 2.8
2020-Jan-28 07:31 005 2.8
2020-Jan-28 07:15 165 2.8
2020-Jan-28 07:00 022 2.8
2020-Jan-28 06:45 040 2.8
2020-Jan-28 06:30 053 3.3
2020-Jan-28 06:15 053 3.3
2020-Jan-28 06:02 041 3.3
2020-Jan-28 05:46 022 3.3
2020-Jan-28 05:32 360 3.3
2020-Jan-28 05:16 005 3.3
2020-Jan-28 05:02 068 3.3
2020-Jan-28 04:47 146 2.8
2020-Jan-28 04:31 147 2.8
2020-Jan-28 04:18 147 2.8
2020-Jan-28 04:02 147 3.3
2020-Jan-28 03:46 147 3.3
2020-Jan-28 03:31 147 3.3
2020-Jan-28 03:16 147 3.3
2020-Jan-28 03:01 147 3.3
2020-Jan-28 02:47 147 3.3
2020-Jan-28 02:31 147 3.3
2020-Jan-28 02:17 147 3.3
2020-Jan-28 02:01 147 3.3
2020-Jan-28 01:46 207 3.3
2020-Jan-28 01:32 005 3.3
2020-Jan-28 01:17 005 3.9
2020-Jan-28 01:01 005 3.9
2020-Jan-28 00:46 009 4.4
2020-Jan-28 00:31 009 4.4
2020-Jan-28 00:16 009 4.4
2020-Jan-28 00:01 012 5.0
2020-Jan-27 23:46 028 5.0
2020-Jan-27 23:32 162 5.0
2020-Jan-27 23:16 168 5.0
2020-Jan-27 23:01 098 5.0
2020-Jan-27 22:46 191 5.0
2020-Jan-27 22:31 282 5.0
2020-Jan-27 22:17 219 5.0
2020-Jan-27 22:01 277 5.6
2020-Jan-27 21:46 337 5.6
2020-Jan-27 21:31 061 5.6
2020-Jan-27 21:16 010 6.1
2020-Jan-27 21:01 078 6.1
2020-Jan-27 20:46 028 6.1
2020-Jan-27 20:30 360 0 gusting 4 6.1
2020-Jan-27 20:16 176 6.1
2020-Jan-27 20:00 122 6.1
2020-Jan-27 19:45 360 1 gusting 4 6.1
2020-Jan-27 19:31 346 6.1
2020-Jan-27 19:15 207 6.1
2020-Jan-27 19:00 101 0 gusting 9 6.7
2020-Jan-27 18:46 199 6.1
2020-Jan-27 18:30 355 5.6
2020-Jan-27 18:16 338 0 gusting 3 5.6
2020-Jan-27 18:00 340 5.6
2020-Jan-27 17:46 344 0 gusting 4 6.1
2020-Jan-27 17:31 355 0 gusting 3 6.1
2020-Jan-27 17:15 153 0 gusting 5 6.1
2020-Jan-27 17:00 319 6.1
2020-Jan-27 16:45 090 5.6
2020-Jan-27 16:32 242 1 gusting 8 5.6
2020-Jan-27 16:17 198 1 gusting 7 5.6
2020-Jan-27 16:01 289 5.6
2020-Jan-27 15:47 103 5.6
2020-Jan-27 15:31 151 0 gusting 5 5.0
2020-Jan-27 15:16 111 0 gusting 5 4.4
2020-Jan-27 15:01 187 3.9
2020-Jan-27 14:45 077 3.9
2020-Jan-27 14:30 311 3.9
2020-Jan-27 14:15 223 3.3
2020-Jan-27 14:01 169 0 gusting 5 2.8
2020-Jan-27 13:46 096 2.2
2020-Jan-27 13:31 196 2.2
2020-Jan-27 13:15 140 1.7
2020-Jan-27 13:00 141 1.7
2020-Jan-27 12:45 144 1.1
2020-Jan-27 12:30 094 0.6
2020-Jan-27 12:15 153 0.6
2020-Jan-27 12:00 136 0.6
2020-Jan-27 11:45 159 1.1
2020-Jan-27 11:30 100 1.1
2020-Jan-27 11:15 337 1.1
2020-Jan-27 11:02 360 0.6
2020-Jan-27 10:47 138 0.6
2020-Jan-27 10:32 340 0.6
2020-Jan-27 10:16 101 -0.0
2020-Jan-27 10:01 325 -0.0
2020-Jan-27 09:48 150 -0.0
2020-Jan-27 09:31 053 -0.6
2020-Jan-27 09:18 335 -0.6
2020-Jan-27 09:02 115 -1.1
2020-Jan-27 08:46 163 -1.1
2020-Jan-27 08:31 080 -1.1
2020-Jan-27 08:01 355 -2.2
2020-Jan-27 07:47 355 -2.2
2020-Jan-27 07:30 355 -2.2
2020-Jan-27 07:17 355 -2.2
2020-Jan-27 07:00 355 -2.2
2020-Jan-27 06:46 355 -2.2
2020-Jan-27 06:32 355 -2.8
2020-Jan-27 06:15 355 -2.2
2020-Jan-27 06:00 355 -2.2
2020-Jan-27 05:45 355 -2.2
2020-Jan-27 05:30 355 -1.7
2020-Jan-27 05:15 355 -1.7
2020-Jan-27 05:00 355 -1.7
2020-Jan-27 04:45 355 -1.1
2020-Jan-27 04:30 355 -0.6
2020-Jan-27 04:15 355 -0.6
2020-Jan-27 04:00 355 -0.0
2020-Jan-27 03:45 355 0.6
2020-Jan-27 03:30 355 1.1
2020-Jan-27 03:15 355 1.1
2020-Jan-27 03:00 355 1.7
2020-Jan-27 02:45 355 2.2
2020-Jan-27 02:30 355 2.2
2020-Jan-27 02:15 355 2.8
2020-Jan-27 02:00 355 2.8
2020-Jan-27 01:45 069 3.3
2020-Jan-27 01:30 083 3.9
2020-Jan-27 01:05 082 4.4
2020-Jan-27 00:47 028 5.0
2020-Jan-27 00:32 225 5.0
2020-Jan-27 00:18 014 5.0
2020-Jan-27 00:02 139 5.0
2020-Jan-26 23:47 138 5.0
2020-Jan-26 23:32 138 5.0
2020-Jan-26 23:16 057 5.0
2020-Jan-26 23:02 053 5.6